Flag for Ireland Weather past 2 weeks in Limerick, Ireland

Now
43 °F

Partly cloudy.


Feels Like: 32 °F
Forecast: 38 / 44 °F
Wind: 32 mph from Northwest

Location: Shannon Airport

Current Time: Jan 30, 2015 at 1:00:45 AM

Latest Report: Jan 30, 2015 at 12:30 AM


Visibility: N/A

Pressure: 29.12 "Hg

Humidity: 76%

Dew point: 36 °F

Location of LimerickLocation

Historic Weather in Limerick — Graph

°F

Limerick temperature yesterday

Maximum temperature yesterday: 45 °F (at 10:30 PM)
Minimum temperature yesterday: 37 °F (at 12:30 AM)
Average temperature yesterday: 40 °F

Past Weeks' High & Low Weather Summary

 TemperatureHumidityPressure
High54 °F (Jan 25, 12:00 PM)100% (Jan 17, 9:00 PM)30.48 "Hg (Jan 17, 9:00 PM)
Low27 °F (Jan 19, 3:30 AM)49% (Jan 15, 9:30 AM)28.77 "Hg (Jan 15, 12:00 AM)
Average41 °F84%29.90 "Hg
* Reported Midnight between Jan 14 and Jan 15 — Midnight between Jan 29 and Jan 30, Limerick, Weather by CustomWeather, © 2014

Note: Actual official high and low records may vary slightly from our data, if they occured in-between our weather recording intervals... More about our weather records

Advertising

Limerick weather history for previous 24 hours

 ConditionsComfort  
Time TempWeatherWind HumidityBarometerVisibility
12:00 AM
Jan 30
43 °FSprinkles. Passing clouds.31 mph76%29.12 "HgN/A
11:30 PM
Jan 29
41 °FPassing clouds.32 mph81%29.12 "HgN/A
11:00 PM45 °FSprinkles. Passing clouds.35 mph66%29.09 "HgN/A
10:30 PM45 °FPassing clouds.31 mph61%29.09 "HgN/A
10:00 PM43 °FPassing clouds.30 mph61%29.12 "HgN/A
9:30 PM41 °FSprinkles. Passing clouds.25 mph81%29.12 "HgN/A
9:00 PM43 °FPassing clouds.25 mph71%29.12 "HgN/A
8:30 PM41 °FSprinkles. Passing clouds.25 mph76%29.15 "Hg6 mi
8:00 PM43 °FPassing clouds.31 mph71%29.15 "HgN/A
7:30 PM43 °FPassing clouds.24 mph61%29.15 "HgN/A
7:00 PM43 °FPassing clouds.22 mph66%29.15 "HgN/A
6:30 PM41 °FPassing clouds.20 mph70%29.15 "HgN/A
6:00 PM41 °FPassing clouds.17 mph66%29.15 "HgN/A
5:30 PM39 °FPassing clouds.14 mph75%29.18 "HgN/A
5:00 PM39 °FPassing clouds.15 mph70%29.18 "HgN/A
4:30 PM39 °FScattered clouds.17 mph65%29.15 "HgN/A
4:00 PM39 °FPassing clouds.17 mph61%29.15 "HgN/A
3:30 PM39 °FScattered clouds.22 mph65%29.15 "HgN/A
3:00 PM41 °FScattered clouds.22 mph66%29.15 "HgN/A
2:30 PM39 °FScattered clouds.29 mph65%29.15 "HgN/A
2:00 PM41 °FScattered showers. Scattered clouds.16 mph70%29.15 "HgN/A
1:30 PM43 °FScattered clouds.20 mph61%29.15 "HgN/A
1:00 PM43 °FPassing clouds.24 mph57%29.15 "HgN/A
12:30 PM41 °FPassing clouds.17 mph70%29.15 "HgN/A
12:00 PM39 °FPassing clouds.22 mph70%29.18 "HgN/A
11:30 AM41 °FPassing clouds.25 mph61%29.15 "HgN/A
11:00 AM41 °FScattered clouds.25 mph70%29.15 "HgN/A
10:30 AM39 °FSprinkles. Partly sunny.24 mph75%29.15 "HgN/A
10:00 AM39 °FSprinkles. Partly sunny.25 mph81%29.15 "HgN/A
9:30 AM37 °FScattered clouds.23 mph87%29.15 "HgN/A
9:00 AM39 °FSprinkles. Scattered clouds.22 mph81%29.15 "HgN/A
8:30 AM39 °FScattered showers. Scattered clouds.23 mph81%29.18 "HgN/A
8:00 AM41 °FPassing clouds.30 mph70%29.18 "HgN/A
7:30 AM39 °FSprinkles. Passing clouds.22 mph81%29.21 "HgN/A
7:00 AM41 °FPassing clouds.20 mph76%29.24 "HgN/A
6:30 AM39 °FPassing clouds.24 mph81%29.24 "HgN/A
6:00 AM39 °FPassing clouds.28 mph81%29.27 "HgN/A
5:30 AM39 °FRain showers. Passing clouds.22 mph81%29.30 "Hg4 mi
5:00 AM41 °FSprinkles. Passing clouds.22 mph76%29.30 "HgN/A
4:30 AM39 °FSprinkles. Passing clouds.23 mph81%29.33 "HgN/A
4:00 AM39 °FPassing clouds.25 mph81%29.36 "HgN/A
3:30 AM41 °FPassing clouds.22 mph70%29.36 "HgN/A
3:00 AM39 °FPassing clouds.21 mph87%29.39 "HgN/A
2:30 AM39 °FPartly cloudy.24 mph81%29.42 "HgN/A
2:00 AM39 °FPartly cloudy.22 mph81%29.45 "HgN/A
1:30 AM39 °FPassing clouds.22 mph81%29.45 "HgN/A
1:00 AM39 °FPassing clouds.21 mph81%29.45 "HgN/A
Weather by CustomWeather, © 2014

See weather overviewHow to use our weather pages